• In Portugal
  • List of Countries
  • For 7 days
  • Water Temperature
  • Satellite Maps
  • Weather Map
  • Weather Widgets
  • user-avatar
    Login

    Hourly Weather Gaziantep

    Today, 18 June, Monday

    Time Temperature Precipitation Wind Pressure Humidity
    00:00 +18°C° 0 mm 4 mps 668 mmHg 72%
    01:00 +18°C° 0 mm 4 mps 668 mmHg 73%
    02:00 +17°C° 0 mm 5 mps 667 mmHg 76%
    03:00 +18°C° 0 mm 4 mps 667 mmHg 76%
    04:00 +18°C° 0 mm 4 mps 667 mmHg 76%
    05:00 +17°C° 0 mm 3 mps 668 mmHg 76%
    06:00 +19°C° 0 mm 3 mps 668 mmHg 68%
    07:00 +21°C° 0 mm 4 mps 668 mmHg 60%
    08:00 +22°C° 0 mm 4 mps 669 mmHg 50%
    09:00 +25°C° 0 mm 4 mps 669 mmHg 46%
    10:00 +26°C° 0 mm 4 mps 669 mmHg 42%
    11:00 +27°C° 0 mm 4 mps 669 mmHg 37%
    12:00 +27°C° 0 mm 4 mps 669 mmHg 37%
    13:00 +28°C° 0 mm 5 mps 669 mmHg 36%
    14:00 +28°C° 0 mm 6 mps 669 mmHg 37%
    15:00 +27°C° 0 mm 6 mps 669 mmHg 41%
    16:00 +26°C° 0 mm 7 mps 669 mmHg 44%
    17:00 +24°C° 0 mm 7 mps 669 mmHg 48%
    18:00 +23°C° 0 mm 6 mps 669 mmHg 53%
    19:00 +22°C° 0 mm 5 mps 668 mmHg 58%
    20:00 +20°C° 0 mm 5 mps 668 mmHg 64%
    21:00 +20°C° 0 mm 4 mps 668 mmHg 66%
    22:00 +19°C° 0 mm 4 mps 668 mmHg 69%
    23:00 +19°C° 0 mm 4 mps 668 mmHg 71%

    Tomorrow, 19 June, Tuesday

    Time Temperature Precipitation Wind Pressure Humidity
    00:00 +18°C° 0 mm 3 mps 668 mmHg 73%
    01:00 +18°C° 0 mm 3 mps 668 mmHg 75%
    02:00 +18°C° 0 mm 3 mps 668 mmHg 76%
    03:00 +17°C° 0 mm 3 mps 668 mmHg 76%
    04:00 +17°C° 0 mm 3 mps 668 mmHg 77%
    05:00 +17°C° 0 mm 3 mps 668 mmHg 77%
    06:00 +19°C° 0 mm 3 mps 669 mmHg 69%
    07:00 +20°C° 0 mm 3 mps 669 mmHg 61%
    08:00 +22°C° 0 mm 3 mps 670 mmHg 53%
    09:00 +25°C° 0 mm 3 mps 670 mmHg 48%
    10:00 +26°C° 0 mm 2 mps 671 mmHg 42%
    11:00 +28°C° 0 mm 2 mps 671 mmHg 36%
    12:00 +28°C° 0 mm 2 mps 671 mmHg 35%
    13:00 +29°C° 0 mm 3 mps 671 mmHg 33%
    14:00 +30°C° 0 mm 3 mps 671 mmHg 31%
    15:00 +29°C° 0.1 mm 4 mps 671 mmHg 34%
    16:00 +28°C° 0.1 mm 5 mps 670 mmHg 38%
    17:00 +28°C° 0.1 mm 6 mps 670 mmHg 42%
    18:00 +26°C° 0 mm 5 mps 670 mmHg 48%
    19:00 +25°C° 0 mm 5 mps 670 mmHg 55%
    20:00 +22°C° 0 mm 5 mps 670 mmHg 62%
    21:00 +21°C° 0 mm 4 mps 670 mmHg 65%
    22:00 +21°C° 0 mm 4 mps 670 mmHg 69%
    23:00 +20°C° 0 mm 4 mps 670 mmHg 72%

    Day after tomorrow, 20 June, Wednesday

    Time Temperature Precipitation Wind Pressure Humidity
    00:00 +20°C° 0 mm 3 mps 670 mmHg 74%
    01:00 +19°C° 0 mm 3 mps 670 mmHg 75%
    02:00 +19°C° 0 mm 3 mps 670 mmHg 77%
    03:00 +18°C° 0 mm 2 mps 670 mmHg 78%
    04:00 +18°C° 0 mm 2 mps 670 mmHg 79%
    05:00 +18°C° 0 mm 2 mps 670 mmHg 80%
    06:00 +19°C° 0 mm 2 mps 670 mmHg 71%
    07:00 +21°C° 0 mm 3 mps 671 mmHg 63%
    08:00 +22°C° 0 mm 3 mps 671 mmHg 55%
    09:00 +25°C° 0 mm 3 mps 672 mmHg 49%
    10:00 +26°C° 0 mm 3 mps 672 mmHg 43%
    11:00 +28°C° 0 mm 3 mps 672 mmHg 36%
    12:00 +28°C° 0 mm 4 mps 672 mmHg 35%
    13:00 +29°C° 0 mm 4 mps 672 mmHg 33%
    14:00 +30°C° 0 mm 5 mps 672 mmHg 31%
    15:00 +29°C° 0 mm 5 mps 672 mmHg 34%
    16:00 +28°C° 0 mm 6 mps 671 mmHg 37%
    17:00 +27°C° 0 mm 6 mps 671 mmHg 40%
    18:00 +26°C° 0 mm 5 mps 671 mmHg 46%
    19:00 +25°C° 0 mm 5 mps 671 mmHg 53%
    20:00 +22°C° 0 mm 4 mps 671 mmHg 59%
    21:00 +21°C° 0 mm 4 mps 671 mmHg 63%
    22:00 +21°C° 0 mm 4 mps 671 mmHg 67%
    23:00 +20°C° 0 mm 3 mps 671 mmHg 70%

    21 June, Thursday

    Time Temperature Precipitation Wind Pressure Humidity
    00:00 +19°C° 0 mm 3 mps 671 mmHg 73%
    01:00 +19°C° 0 mm 3 mps 670 mmHg 75%
    02:00 +18°C° 0 mm 3 mps 670 mmHg 77%
    03:00 +18°C° 0 mm 3 mps 670 mmHg 78%
    04:00 +18°C° 0 mm 3 mps 670 mmHg 79%
    05:00 +18°C° 0 mm 3 mps 670 mmHg 80%
    06:00 +20°C° 0 mm 3 mps 670 mmHg 72%
    07:00 +21°C° 0 mm 3 mps 671 mmHg 64%
    08:00 +22°C° 0 mm 4 mps 671 mmHg 56%
    09:00 +25°C° 0 mm 4 mps 672 mmHg 50%
    10:00 +26°C° 0 mm 4 mps 672 mmHg 45%
    11:00 +28°C° 0 mm 4 mps 672 mmHg 39%
    12:00 +28°C° 0 mm 5 mps 672 mmHg 38%
    13:00 +29°C° 0 mm 5 mps 672 mmHg 37%
    14:00 +29°C° 0 mm 6 mps 671 mmHg 35%
    15:00 +28°C° 0 mm 6 mps 671 mmHg 39%
    16:00 +27°C° 0 mm 7 mps 671 mmHg 42%
    17:00 +26°C° 0 mm 7 mps 671 mmHg 46%
    18:00 +24°C° 0 mm 7 mps 671 mmHg 52%
    19:00 +22°C° 0 mm 6 mps 671 mmHg 58%
    20:00 +21°C° 0 mm 5 mps 670 mmHg 64%
    21:00 +20°C° 0 mm 5 mps 670 mmHg 67%
    22:00 +20°C° 0 mm 5 mps 670 mmHg 70%
    23:00 +19°C° 0 mm 5 mps 670 mmHg 72%

    22 June, Friday

    Time Temperature Precipitation Wind Pressure Humidity
    00:00 +19°C° 0 mm 4 mps 670 mmHg 74%
    01:00 +19°C° 0 mm 4 mps 670 mmHg 75%
    02:00 +19°C° 0 mm 4 mps 670 mmHg 77%
    03:00 +19°C° 0 mm 4 mps 670 mmHg 77%
    04:00 +18°C° 0 mm 4 mps 669 mmHg 78%
    05:00 +18°C° 0 mm 3 mps 669 mmHg 79%
    06:00 +20°C° 0 mm 4 mps 670 mmHg 71%
    07:00 +21°C° 0 mm 4 mps 670 mmHg 63%
    08:00 +23°C° 0 mm 4 mps 671 mmHg 54%
    09:00 +25°C° 0 mm 4 mps 671 mmHg 49%
    10:00 +27°C° 0 mm 4 mps 671 mmHg 44%
    11:00 +28°C° 0 mm 4 mps 671 mmHg 39%
    12:00 +29°C° 0 mm 5 mps 671 mmHg 38%
    13:00 +29°C° 0 mm 5 mps 671 mmHg 37%
    14:00 +30°C° 0 mm 5 mps 671 mmHg 36%
    15:00 +29°C° 0 mm 6 mps 671 mmHg 40%
    16:00 +28°C° 0 mm 6 mps 670 mmHg 43%
    17:00 +27°C° 0 mm 6 mps 670 mmHg 47%
    18:00 +26°C° 0 mm 6 mps 670 mmHg 53%
    19:00 +23°C° 0 mm 5 mps 670 mmHg 59%
    20:00 +22°C° 0 mm 5 mps 670 mmHg 65%
    21:00 +21°C° 0 mm 5 mps 670 mmHg 67%
    22:00 +21°C° 0 mm 4 mps 670 mmHg 69%
    23:00 +20°C° 0 mm 4 mps 670 mmHg 72%

    23 June, Saturday

    Time Temperature Precipitation Wind Pressure Humidity
    00:00 +20°C° 0 mm 4 mps 669 mmHg 73%
    01:00 +20°C° 0 mm 4 mps 669 mmHg 74%
    02:00 +19°C° 0 mm 4 mps 669 mmHg 76%
    03:00 +19°C° 0 mm 3 mps 669 mmHg 76%
    04:00 +19°C° 0 mm 3 mps 669 mmHg 77%
    05:00 +19°C° 0 mm 3 mps 669 mmHg 77%
    06:00 +21°C° 0 mm 3 mps 669 mmHg 69%
    07:00 +24°C° 0 mm 3 mps 670 mmHg 61%
    08:00 +25°C° 0 mm 4 mps 670 mmHg 53%
    09:00 +27°C° 0 mm 3 mps 670 mmHg 47%
    10:00 +28°C° 0 mm 3 mps 670 mmHg 41%
    11:00 +30°C° 0 mm 3 mps 671 mmHg 36%
    12:00 +30°C° 0 mm 3 mps 670 mmHg 34%
    13:00 +32°C° 0 mm 4 mps 670 mmHg 33%
    14:00 +33°C° 0 mm 4 mps 670 mmHg 32%
    15:00 +32°C° 0 mm 5 mps 670 mmHg 35%
    16:00 +30°C° 0 mm 5 mps 670 mmHg 39%
    17:00 +30°C° 0 mm 6 mps 670 mmHg 42%
    18:00 +28°C° 0 mm 5 mps 670 mmHg 49%
    19:00 +26°C° 0 mm 5 mps 670 mmHg 56%
    20:00 +25°C° 0 mm 5 mps 669 mmHg 63%
    21:00 +23°C° 0 mm 5 mps 669 mmHg 66%
    22:00 +22°C° 0 mm 4 mps 669 mmHg 69%
    23:00 +22°C° 0 mm 4 mps 669 mmHg 71%
    Show more